Location: Taupo
(38.6830°S, 176.0830°E)
Time: 03:26:36
(UTC+13:00)

NOSS 2-1 (E) - Pass Details

Date: 24 January 2019
Orbit: 479 x 1725 km, 63.3° (Epoch: 04 February)

Event Time Altitude Azimuth Distance (km) Brightness Sun altitude
Rises 22:48:55 0° 214° (SW) 4,395 9.4 -21.2°
Reaches altitude 10° 22:52:12 10° 212° (SSW) 3,224 8.4 -21.6°
Maximum altitude 22:59:48 82° 125° (SE) 980 4.4 -22.5°
Enters shadow 23:01:33 49° 44° (NE) 1,152 4.4 -22.7°
